Time,TemperatureF,DewpointF,PressureIn,WindDirection,WindDirectionDegrees,WindSpeedMPH,WindSpeedGustMPH,Humidity,HourlyPrecipIn,Conditions,Clouds,dailyrainin,SoftwareType,DateUTC
2013-08-12 00:13:00,70.1,69.8,29.92,North,-999,0.0,-999.0,99,-99.99,,,-99.99,Acu-Link.com,2013-08-12 05:13:00,
2013-08-12 00:28:00,70.0,69.7,29.90,North,-999,0.0,-999.0,99,-99.99,,,-99.99,Acu-Link.com,2013-08-12 05:28:00,
2013-08-12 00:44:00,69.9,69.6,29.90,North,-999,0.0,-999.0,99,-99.99,,,-99.99,Acu-Link.com,2013-08-12 05:44:00,
2013-08-12 00:59:00,69.6,69.3,29.90,North,-999,0.0,-999.0,99,-99.99,,,-99.99,Acu-Link.com,2013-08-12 05:59:00,
2013-08-12 01:14:00,70.2,69.9,29.90,North,-999,0.0,-999.0,99,-99.99,,,-99.99,Acu-Link.com,2013-08-12 06:14:00,
2013-08-12 01:30:00,70.3,70.0,29.89,North,-999,0.0,-999.0,99,-99.99,,,-99.99,Acu-Link.com,2013-08-12 06:30:00,
2013-08-12 01:45:00,70.1,69.8,29.88,North,-999,0.0,-999.0,99,-99.99,,,-99.99,Acu-Link.com,2013-08-12 06:45:00,
2013-08-12 02:00:00,69.9,69.6,29.89,North,-999,0.0,-999.0,99,-99.99,,,-99.99,Acu-Link.com,2013-08-12 07:00:00,
2013-08-12 02:15:00,69.6,69.3,29.90,North,-999,0.0,-999.0,99,-99.99,,,-99.99,Acu-Link.com,2013-08-12 07:15:00,
2013-08-12 02:30:00,69.6,69.3,29.91,North,-999,0.0,-999.0,99,-99.99,,,-99.99,Acu-Link.com,2013-08-12 07:30:00,
2013-08-12 02:46:00,69.6,69.3,29.89,North,-999,0.0,-999.0,99,-99.99,,,-99.99,Acu-Link.com,2013-08-12 07:46:00,
2013-08-12 03:01:00,69.3,69.0,29.88,North,-999,0.0,-999.0,99,-99.99,,,-99.99,Acu-Link.com,2013-08-12 08:01:00,
2013-08-12 03:17:00,69.4,69.1,29.89,North,-999,0.0,-999.0,99,-99.99,,,-99.99,Acu-Link.com,2013-08-12 08:17:00,
2013-08-12 03:32:00,69.1,68.8,29.89,North,-999,0.0,-999.0,99,-99.99,,,-99.99,Acu-Link.com,2013-08-12 08:32:00,
2013-08-12 03:47:00,69.2,68.9,29.90,North,-999,0.0,-999.0,99,-99.99,,,-99.99,Acu-Link.com,2013-08-12 08:47:00,
2013-08-12 04:02:00,69.0,68.7,29.90,North,-999,0.0,-999.0,99,-99.99,,,-99.99,Acu-Link.com,2013-08-12 09:02:00,
2013-08-12 04:17:00,68.4,68.1,29.91,North,-999,0.0,-999.0,99,-99.99,,,-99.99,Acu-Link.com,2013-08-12 09:17:00,
2013-08-12 04:33:00,67.7,67.4,29.90,North,-999,0.0,-999.0,99,-99.99,,,-99.99,Acu-Link.com,2013-08-12 09:33:00,
2013-08-12 04:48:00,68.3,68.0,29.90,North,-999,0.0,-999.0,99,-99.99,,,-99.99,Acu-Link.com,2013-08-12 09:48:00,
2013-08-12 05:03:00,68.2,67.9,29.89,North,-999,0.0,-999.0,99,-99.99,,,-99.99,Acu-Link.com,2013-08-12 10:03:00,
2013-08-12 05:18:00,67.9,67.6,29.89,North,-999,0.0,-999.0,99,-99.99,,,-99.99,Acu-Link.com,2013-08-12 10:18:00,
2013-08-12 05:33:00,67.6,67.3,29.90,North,-999,0.0,-999.0,99,-99.99,,,-99.99,Acu-Link.com,2013-08-12 10:33:00,
2013-08-12 05:49:00,67.2,66.9,29.90,North,-999,0.0,-999.0,99,-99.99,,,-99.99,Acu-Link.com,2013-08-12 10:49:00,
2013-08-12 06:04:00,66.7,66.4,29.90,North,-999,0.0,-999.0,99,-99.99,,,-99.99,Acu-Link.com,2013-08-12 11:04:00,
2013-08-12 06:19:00,66.2,65.9,29.90,North,-999,0.0,-999.0,99,-99.99,,,-99.99,Acu-Link.com,2013-08-12 11:19:00,
2013-08-12 06:35:00,65.8,65.5,29.90,North,-999,0.0,-999.0,99,-99.99,,,-99.99,Acu-Link.com,2013-08-12 11:35:00,
2013-08-12 06:50:00,65.8,65.5,29.90,North,-999,0.0,-999.0,99,-99.99,,,-99.99,Acu-Link.com,2013-08-12 11:50:00,
2013-08-12 07:05:00,65.5,65.2,29.90,North,-999,0.0,-999.0,99,-99.99,,,-99.99,Acu-Link.com,2013-08-12 12:05:00,
2013-08-12 07:20:00,64.9,64.6,29.90,North,-999,0.0,-999.0,99,-99.99,,,-99.99,Acu-Link.com,2013-08-12 12:20:00,
2013-08-12 07:36:00,64.7,64.4,29.90,North,-999,0.0,-999.0,99,-99.99,,,-99.99,Acu-Link.com,2013-08-12 12:36:00,
2013-08-12 07:51:00,67.3,67.0,29.90,North,-999,0.0,-999.0,99,-99.99,,,-99.99,Acu-Link.com,2013-08-12 12:51:00,
2013-08-12 08:06:00,70.4,70.1,29.91,North,-999,3.2,-999.0,99,-99.99,,,-99.99,Acu-Link.com,2013-08-12 13:06:00,
2013-08-12 08:22:00,73.0,72.4,29.91,North,-999,0.0,-999.0,98,-99.99,,,-99.99,Acu-Link.com,2013-08-12 13:22:00,
2013-08-12 08:37:00,73.4,71.9,29.92,North,-999,3.2,-999.0,95,-99.99,,,-99.99,Acu-Link.com,2013-08-12 13:37:00,
2013-08-12 08:52:00,76.3,74.4,29.92,North,-999,0.0,-999.0,94,-99.99,,,-99.99,Acu-Link.com,2013-08-12 13:52:00,
2013-08-12 09:07:00,78.6,74.7,29.92,North,-999,0.0,-999.0,88,-99.99,,,-99.99,Acu-Link.com,2013-08-12 14:07:00,
2013-08-12 09:23:00,77.1,73.3,29.93,North,-999,3.2,-999.0,88,-99.99,,,-99.99,Acu-Link.com,2013-08-12 14:23:00,
2013-08-12 09:38:00,80.3,75.7,29.93,North,-999,0.0,-999.0,86,-99.99,,,-99.99,Acu-Link.com,2013-08-12 14:38:00,
2013-08-12 09:53:00,80.6,75.3,29.93,North,-999,0.0,-999.0,84,-99.99,,,-99.99,Acu-Link.com,2013-08-12 14:53:00,
2013-08-12 10:08:00,79.9,75.3,29.93,North,-999,0.0,-999.0,86,-99.99,,,-99.99,Acu-Link.com,2013-08-12 15:08:00,
2013-08-12 10:24:00,81.1,74.7,29.93,North,-999,3.2,-999.0,81,-99.99,,,-99.99,Acu-Link.com,2013-08-12 15:24:00,
2013-08-12 10:39:00,83.1,75.9,29.93,North,-999,0.0,-999.0,79,-99.99,,,-99.99,Acu-Link.com,2013-08-12 15:39:00,
2013-08-12 10:54:00,82.0,74.4,29.94,North,-999,6.4,-999.0,78,-99.99,,,-99.99,Acu-Link.com,2013-08-12 15:54:00,
2013-08-12 11:09:00,81.3,74.9,29.93,North,-999,6.4,-999.0,81,-99.99,,,-99.99,Acu-Link.com,2013-08-12 16:09:00,
2013-08-12 11:25:00,82.9,75.3,29.93,North,-999,0.0,-999.0,78,-99.99,,,-99.99,Acu-Link.com,2013-08-12 16:25:00,
2013-08-12 11:41:00,82.5,73.8,29.93,North,-999,6.4,-999.0,75,-99.99,,,-99.99,Acu-Link.com,2013-08-12 16:41:00,
2013-08-12 11:56:00,82.6,75.0,29.93,North,-999,4.8,-999.0,78,-99.99,,,-99.99,Acu-Link.com,2013-08-12 16:56:00,
2013-08-12 12:11:00,81.9,75.5,29.94,North,-999,6.4,-999.0,81,-99.99,,,-99.99,Acu-Link.com,2013-08-12 17:11:00,
2013-08-12 12:26:00,80.6,74.9,29.94,North,-999,1.6,-999.0,83,-99.99,,,-99.99,Acu-Link.com,2013-08-12 17:26:00,
2013-08-12 12:42:00,79.5,73.9,29.93,North,-999,3.2,-999.0,83,-99.99,,,-99.99,Acu-Link.com,2013-08-12 17:42:00,
2013-08-12 12:57:00,83.1,76.3,29.93,North,-999,1.6,-999.0,80,-99.99,,,-99.99,Acu-Link.com,2013-08-12 17:57:00,
2013-08-12 13:12:00,81.3,75.3,29.93,North,-999,1.6,-999.0,82,-99.99,,,-99.99,Acu-Link.com,2013-08-12 18:12:00,
2013-08-12 13:27:00,80.4,75.5,29.92,North,-999,6.4,-999.0,85,-99.99,,,-99.99,Acu-Link.com,2013-08-12 18:27:00,
2013-08-12 13:54:00,83.1,73.5,29.92,North,-999,4.8,-999.0,73,-99.99,,,-99.99,Acu-Link.com,2013-08-12 18:54:00,
2013-08-12 14:11:00,83.4,73.4,29.92,North,-999,6.4,-999.0,72,-99.99,,,-99.99,Acu-Link.com,2013-08-12 19:11:00,
2013-08-12 14:26:00,81.8,71.9,29.92,North,-999,3.2,-999.0,72,-99.99,,,-99.99,Acu-Link.com,2013-08-12 19:26:00,
2013-08-12 14:41:00,81.7,73.4,29.91,North,-999,9.6,-999.0,76,-99.99,,,-99.99,Acu-Link.com,2013-08-12 19:41:00,
2013-08-12 14:56:00,83.5,73.1,29.91,North,-999,6.4,-999.0,71,-99.99,,,-99.99,Acu-Link.com,2013-08-12 19:56:00,
2013-08-12 15:12:00,82.9,72.9,29.91,North,-999,4.8,-999.0,72,-99.99,,,-99.99,Acu-Link.com,2013-08-12 20:12:00,
2013-08-12 15:27:00,83.2,70.6,29.91,North,-999,6.4,-999.0,66,-99.99,,,-99.99,Acu-Link.com,2013-08-12 20:27:00,
2013-08-12 15:43:00,82.9,70.8,29.90,North,-999,6.4,-999.0,67,-99.99,,,-99.99,Acu-Link.com,2013-08-12 20:43:00,
2013-08-12 15:58:00,83.4,69.9,29.91,North,-999,1.6,-999.0,64,-99.99,,,-99.99,Acu-Link.com,2013-08-12 20:58:00,
2013-08-12 16:13:00,84.4,69.5,29.90,North,-999,1.6,-999.0,61,-99.99,,,-99.99,Acu-Link.com,2013-08-12 21:13:00,
2013-08-12 16:29:00,83.2,67.8,29.90,North,-999,4.8,-999.0,60,-99.99,,,-99.99,Acu-Link.com,2013-08-12 21:29:00,
2013-08-12 16:44:00,84.6,67.7,29.90,North,-999,1.6,-999.0,57,-99.99,,,-99.99,Acu-Link.com,2013-08-12 21:44:00,
2013-08-12 16:59:00,83.2,68.8,29.90,North,-999,3.2,-999.0,62,-99.99,,,-99.99,Acu-Link.com,2013-08-12 21:59:00,
2013-08-12 17:14:00,83.8,68.9,29.90,North,-999,0.0,-999.0,61,-99.99,,,-99.99,Acu-Link.com,2013-08-12 22:14:00,
2013-08-12 17:30:00,83.1,70.1,29.90,North,-999,0.0,-999.0,65,-99.99,,,-99.99,Acu-Link.com,2013-08-12 22:30:00,
2013-08-12 17:45:00,82.0,70.4,29.90,North,-999,6.4,-999.0,68,-99.99,,,-99.99,Acu-Link.com,2013-08-12 22:45:00,
2013-08-12 18:00:00,81.9,71.1,29.90,North,-999,3.2,-999.0,70,-99.99,,,-99.99,Acu-Link.com,2013-08-12 23:00:00,
2013-08-12 18:16:00,80.9,70.6,29.90,North,-999,6.4,-999.0,71,-99.99,,,-99.99,Acu-Link.com,2013-08-12 23:16:00,
2013-08-12 18:31:00,80.1,69.8,29.90,North,-999,8.0,-999.0,71,-99.99,,,-99.99,Acu-Link.com,2013-08-12 23:31:00,
2013-08-12 18:47:00,79.4,69.2,29.89,North,-999,11.2,-999.0,71,-99.99,,,-99.99,Acu-Link.com,2013-08-12 23:47:00,
2013-08-12 19:02:00,78.7,69.7,29.90,North,-999,6.4,-999.0,74,-99.99,,,-99.99,Acu-Link.com,2013-08-13 00:02:00,
2013-08-12 19:17:00,77.8,68.8,29.89,North,-999,3.2,-999.0,74,-99.99,,,-99.99,Acu-Link.com,2013-08-13 00:17:00,
2013-08-12 19:55:00,74.4,67.8,29.89,North,-999,0.0,-999.0,80,-99.99,,,-99.99,Acu-Link.com,2013-08-13 00:55:00,
2013-08-12 20:10:00,72.9,66.7,29.89,North,-999,0.0,-999.0,81,-99.99,,,-99.99,Acu-Link.com,2013-08-13 01:10:00,
2013-08-12 20:25:00,71.0,66.3,29.90,North,-999,0.0,-999.0,85,-99.99,,,-99.99,Acu-Link.com,2013-08-13 01:25:00,
2013-08-12 20:41:00,69.7,66.6,29.91,North,-999,0.0,-999.0,90,-99.99,,,-99.99,Acu-Link.com,2013-08-13 01:41:00,
2013-08-12 20:56:00,68.9,66.8,29.91,North,-999,0.0,-999.0,93,-99.99,,,-99.99,Acu-Link.com,2013-08-13 01:56:00,
2013-08-12 21:11:00,68.5,67.3,29.93,North,-999,0.0,-999.0,96,-99.99,,,-99.99,Acu-Link.com,2013-08-13 02:11:00,
2013-08-12 21:26:00,68.5,67.9,29.94,North,-999,0.0,-999.0,98,-99.99,,,-99.99,Acu-Link.com,2013-08-13 02:26:00,
2013-08-12 21:42:00,68.3,67.7,29.94,North,-999,0.0,-999.0,98,-99.99,,,-99.99,Acu-Link.com,2013-08-13 02:42:00,
2013-08-12 21:57:00,68.0,67.4,29.95,North,-999,0.0,-999.0,98,-99.99,,,-99.99,Acu-Link.com,2013-08-13 02:57:00,
2013-08-12 22:12:00,67.3,67.0,29.95,North,-999,0.0,-999.0,99,-99.99,,,-99.99,Acu-Link.com,2013-08-13 03:12:00,
2013-08-12 22:27:00,67.5,66.9,29.96,North,-999,0.0,-999.0,98,-99.99,,,-99.99,Acu-Link.com,2013-08-13 03:27:00,
2013-08-12 22:43:00,66.9,66.6,29.96,North,-999,0.0,-999.0,99,-99.99,,,-99.99,Acu-Link.com,2013-08-13 03:43:00,
2013-08-12 22:58:00,65.5,65.2,29.96,North,-999,0.0,-999.0,99,-99.99,,,-99.99,Acu-Link.com,2013-08-13 03:58:00,
2013-08-12 23:13:00,65.2,64.9,29.96,North,-999,0.0,-999.0,99,-99.99,,,-99.99,Acu-Link.com,2013-08-13 04:13:00,
2013-08-12 23:29:00,64.7,64.4,29.96,North,-999,0.0,-999.0,99,-99.99,,,-99.99,Acu-Link.com,2013-08-13 04:29:00,
2013-08-12 23:44:00,64.8,64.5,29.96,North,-999,0.0,-999.0,99,-99.99,,,-99.99,Acu-Link.com,2013-08-13 04:44:00,
2013-08-12 23:59:00,64.3,64.0,29.96,North,-999,0.0,-999.0,99,-99.99,,,-99.99,Acu-Link.com,2013-08-13 04:59:00,